Wind_Speed
58 58 57 56 56 56 56 56 55 55 53 51 51 51 51 51 50 49 49 48 48 48 48 49 49 49 48 48 48 48 47 48 48 48 49 49 49 49
58 58 58 57 57 57 56 56 55 55 53 50 50 50 50 50 50 49 49 49 48 48 48 48 49 49 48 49 48 48 48 49 50 51 50 50 50 51
57 57 57 56 57 56 56 56 56 54 53 50 50 50 50 49 50 50 50 50 49 49 49 49 49 48 48 48 48 49 50 51 50 50 51 50 50 50
56 56 56 55 55 54 54 55 54 54 52 50 50 50 49 49 49 50 50 50 50 50 49 49 47 48 48 48 49 50 51 52 51 50 50 50 50 50
55 55 54 54 54 54 54 54 54 53 52 51 50 50 49 49 50 50 50 50 51 51 50 49 48 47 47 49 49 50 51 51 50 50 50 51 50 49
53 53 52 52 52 53 53 53 52 52 52 51 50 50 49 49 49 50 49 50 50 49 48 48 48 48 48 49 50 50 50 50 50 50 50 50 49 50
51 51 51 51 52 52 52 51 51 51 52 51 49 49 48 48 49 49 49 49 48 48 47 47 46 48 49 50 51 51 51 50 50 50 49 50 49 50
49 49 49 50 50 51 51 50 50 50 51 50 48 47 47 47 47 48 48 48 47 46 47 47 47 48 49 50 50 50 49 49 49 49 49 50 50 50
49 48 48 48 48 49 49 50 50 50 50 50 48 46 46 46 47 47 47 46 46 46 46 46 47 48 49 49 49 48 48 48 48 48 49 49 49 49
49 48 46 46 47 48 49 50 50 49 48 48 47 47 47 47 48 47 46 46 46 46 46 46 47 48 48 48 48 47 47 47 47 48 48 48 49 50
45 45 45 46 45 46 47 47 47 47 47 47 48 47 46 46 46 46 46 45 45 45 45 45 45 46 47 47 47 47 47 47 47 48 48 48 48 49
44 44 45 45 44 45 45 45 46 46 46 46 46 45 45 44 44 44 44 44 45 44 44 45 45 46 46 46 46 46 46 47 47 47 47 47 47 47
42 43 43 44 44 43 43 43 43 44 45 45 44 43 43 43 43 43 42 42 43 43 44 45 45 45 45 44 44 45 46 46 46 46 46 46 47 46
41 41 42 42 43 42 42 42 42 43 43 41 41 41 41 42 42 41 41 41 41 42 43 44 44 44 43 43 43 44 45 45 45 45 45 45 45 45
39 39 40 40 41 41 41 41 41 41 40 39 40 40 40 40 40 41 41 40 41 41 41 42 43 43 43 43 43 43 43 42 42 43 43 43 43 43
37 38 38 39 40 39 38 37 37 37 37 38 38 38 39 39 39 39 39 39 40 39 39 40 41 41 42 42 41 40 40 40 40 41 41 41 41 42
35 36 36 36 36 36 35 35 34 34 35 35 37 37 38 38 38 38 38 38 39 38 39 40 40 40 39 39 39 38 38 38 39 39 39 39 40 40
33 34 34 34 34 33 33 33 33 33 34 34 35 35 36 36 36 36 37 37 38 38 39 39 39 38 38 37 36 36 35 36 36 36 36 36 37 37
29 29 30 30 31 30 31 32 32 32 33 33 33 34 34 35 35 35 35 35 36 36 36 37 36 36 36 35 34 33 33 33 33 34 34 35 35 35
29 29 29 29 29 29 30 30 31 31 32 32 32 33 33 33 34 33 34 34 35 35 36 36 36 35 34 34 33 33 32 32 32 32 33 33 32 32
27 27 27 26 27 28 28 29 29 30 30 31 31 31 31 31 32 32 33 34 34 35 35 35 34 33 33 33 32 31 31 31 31 31 31 30 29 28
25 25 25 26 26 26 26 27 27 28 29 30 30 30 30 30 31 32 33 33 33 34 34 33 33 32 32 32 31 31 31 31 31 30 29 27 26 25
22 23 23 23 24 24 24 25 26 26 27 28 28 29 29 29 30 30 31 32 32 32 32 31 31 31 31 31 30 30 30 29 28 27 25 24 24 23
Wind_Direction
265 266 266 266 266 266 267 268 269 269 269 270 271 272 274 274 275 276 277 277 278 279 279 280 281 282 283 283 284 285 286 288 290 290 292 293 293 294
265 265 266 266 266 266 267 267 268 269 270 270 270 270 272 273 274 275 276 277 277 278 279 280 281 282 282 282 284 284 286 287 289 290 291 292 294 293
265 266 266 267 267 266 266 266 267 269 269 268 269 270 271 272 273 274 275 276 276 277 277 278 280 281 282 283 284 285 286 287 288 289 291 293 293 292
265 266 266 267 268 267 266 266 266 267 268 268 268 269 270 271 272 273 275 275 275 275 276 277 278 280 281 283 284 284 286 286 287 289 291 291 292 292
264 265 265 266 266 267 266 266 266 266 266 267 267 268 269 271 271 273 274 274 274 275 276 277 278 279 280 282 284 285 286 287 288 289 290 291 291 291
264 264 264 265 266 266 266 266 266 265 265 267 267 268 270 270 271 273 274 274 274 275 276 277 277 278 279 282 284 285 286 288 289 289 289 290 290 291
263 264 264 264 264 265 265 265 266 266 265 266 267 268 269 270 270 273 274 274 274 275 276 277 277 278 281 283 285 286 287 288 289 289 289 289 290 291
264 264 264 263 264 264 264 265 266 266 266 266 268 269 270 270 271 274 275 275 275 277 278 279 279 280 282 284 286 287 288 289 289 288 288 288 289 291
264 264 265 264 264 264 264 264 266 268 268 267 268 268 269 270 271 272 274 276 277 279 279 279 280 281 283 285 286 288 288 288 287 288 289 289 290 291
264 264 264 265 266 266 265 265 266 268 268 267 268 268 269 269 271 272 274 276 277 279 280 280 281 283 285 286 286 287 287 287 288 288 289 290 291 292
264 264 264 265 267 267 267 266 267 267 267 267 268 269 269 270 272 272 274 276 277 279 281 282 284 284 285 285 285 285 285 287 289 289 289 290 292 292
265 264 263 264 265 267 267 267 267 266 266 267 267 267 268 270 271 273 274 276 279 280 282 283 285 285 285 285 285 285 286 288 290 290 290 291 292 293
266 265 264 264 264 266 266 266 266 265 264 264 265 266 268 270 272 275 276 278 280 281 283 284 285 286 286 285 285 286 287 289 290 290 290 292 293 294
267 266 264 264 265 265 265 266 266 265 264 262 263 265 269 271 273 275 277 279 281 283 284 285 286 287 286 286 286 288 289 290 290 290 290 292 294 294
267 266 265 265 265 265 266 266 265 265 264 262 263 265 269 272 274 275 277 279 281 283 285 286 286 286 285 286 288 289 289 289 289 290 291 292 294 294
266 266 266 265 264 264 265 265 265 265 263 263 265 267 270 272 274 276 277 277 280 282 284 286 287 287 287 287 289 290 290 290 290 291 292 293 294 295
266 266 265 266 265 265 265 264 263 263 264 266 267 270 272 273 274 275 275 277 280 283 285 287 288 288 287 288 290 290 290 291 292 293 292 293 294 295
267 266 264 264 265 265 263 261 261 262 264 266 268 270 272 274 275 276 278 280 282 284 286 287 288 287 288 288 289 290 289 291 292 292 292 294 296 296
267 266 265 265 265 263 262 262 262 263 264 265 268 270 272 273 274 277 279 280 282 284 286 287 287 286 287 289 290 289 290 291 292 293 295 296 298 298
267 266 265 265 264 264 264 264 263 263 264 266 268 270 273 274 275 277 278 280 282 284 286 288 288 287 286 289 289 289 290 292 293 294 296 298 299 300
268 266 265 265 264 264 265 265 265 265 265 267 270 272 273 275 275 276 277 279 281 284 286 288 288 287 286 288 289 290 291 292 293 295 297 298 299 301
268 266 265 266 266 266 264 265 267 267 268 269 271 272 274 276 277 278 279 281 283 286 287 287 287 287 287 288 289 290 291 292 294 295 296 297 299 300
271 269 266 266 266 266 267 267 269 270 271 272 273 273 275 277 279 280 281 282 284 286 287 287 287 287 287 288 289 291 292 292 294 295 295 297 298 300
Height
5639 5640 5640 5641 5641 5641 5641 5642 5642 5643 5646 5648 5647 5647 5646 5646 5646 5645 5645 5645 5644 5644 5643 5642 5641 5640 5638 5637 5636 5634 5632 5630 5627 5624 5621 5618 5615 5611
5624 5624 5625 5625 5626 5626 5626 5627 5627 5628 5631 5634 5633 5632 5632 5632 5632 5632 5632 5632 5631 5631 5630 5629 5628 5627 5626 5624 5623 5621 5619 5617 5614 5611 5608 5605 5601 5597
5608 5608 5610 5610 5610 5611 5611 5612 5613 5614 5616 5619 5619 5618 5618 5618 5618 5618 5618 5618 5618 5617 5617 5616 5615 5614 5613 5612 5610 5608 5606 5604 5601 5598 5595 5591 5587 5584
5593 5593 5595 5595 5595 5596 5596 5597 5599 5600 5601 5603 5605 5604 5604 5605 5605 5605 5604 5604 5604 5604 5603 5603 5602 5601 5601 5599 5597 5595 5593 5590 5587 5584 5581 5578 5574 5570
5576 5578 5579 5580 5581 5581 5582 5583 5584 5585 5586 5587 5590 5590 5591 5591 5591 5591 5591 5591 5590 5590 5589 5589 5589 5588 5588 5586 5584 5582 5579 5577 5574 5570 5567 5564 5560 5556
5562 5563 5564 5565 5566 5567 5567 5568 5569 5570 5572 5573 5575 5577 5577 5577 5577 5578 5578 5577 5577 5576 5576 5575 5575 5575 5574 5572 5571 5568 5565 5562 5559 5556 5553 5550 5547 5543
5548 5549 5550 5551 5552 5552 5553 5554 5555 5556 5558 5559 5561 5562 5564 5564 5564 5564 5564 5564 5564 5563 5562 5562 5562 5561 5560 5558 5556 5554 5551 5548 5545 5542 5539 5536 5533 5529
5534 5535 5536 5537 5538 5539 5540 5541 5542 5543 5544 5546 5548 5549 5550 5551 5551 5550 5550 5550 5551 5552 5550 5549 5548 5547 5546 5544 5542 5539 5537 5534 5532 5529 5525 5522 5519 5515
5520 5521 5522 5523 5524 5525 5526 5528 5529 5530 5532 5533 5535 5536 5537 5538 5538 5537 5537 5537 5538 5538 5536 5536 5534 5533 5532 5530 5528 5525 5523 5520 5518 5515 5512 5508 5505 5501
5507 5508 5509 5510 5512 5512 5513 5515 5517 5518 5519 5520 5522 5524 5524 5524 5524 5525 5524 5525 5525 5524 5523 5523 5522 5520 5518 5516 5514 5512 5509 5507 5504 5501 5498 5495 5491 5487
5494 5495 5497 5498 5500 5500 5501 5503 5504 5505 5506 5507 5509 5510 5511 5511 5511 5511 5512 5511 5512 5512 5510 5509 5508 5506 5504 5502 5500 5497 5495 5493 5490 5487 5484 5481 5477 5473
5482 5483 5484 5485 5487 5487 5488 5490 5491 5493 5493 5494 5496 5497 5498 5498 5499 5499 5499 5499 5499 5499 5498 5496 5495 5493 5491 5489 5486 5484 5482 5479 5477 5473 5470 5466 5462 5459
5469 5471 5472 5473 5474 5475 5476 5477 5479 5480 5480 5482 5483 5485 5485 5486 5487 5487 5487 5487 5486 5486 5485 5483 5481 5479 5477 5476 5473 5471 5469 5466 5463 5460 5456 5452 5448 5445
5457 5459 5460 5461 5462 5464 5464 5466 5467 5467 5468 5470 5471 5473 5474 5475 5475 5475 5475 5474 5474 5473 5472 5470 5469 5467 5465 5463 5461 5458 5455 5453 5450 5447 5443 5439 5435 5431
5445 5447 5448 5449 5451 5452 5453 5454 5455 5456 5457 5459 5461 5462 5463 5463 5463 5463 5463 5462 5462 5461 5459 5458 5456 5454 5451 5450 5448 5445 5443 5440 5437 5434 5430 5427 5422 5418
5435 5436 5437 5438 5440 5441 5442 5443 5444 5445 5447 5449 5450 5451 5451 5452 5452 5452 5451 5451 5450 5449 5448 5446 5443 5441 5439 5437 5435 5433 5430 5428 5425 5422 5418 5414 5410 5406
5424 5425 5426 5428 5429 5430 5431 5433 5434 5436 5437 5438 5439 5440 5440 5441 5440 5440 5440 5440 5439 5438 5436 5434 5431 5429 5427 5425 5423 5421 5418 5416 5413 5409 5406 5402 5398 5394
5414 5415 5416 5417 5419 5420 5421 5423 5424 5426 5427 5428 5429 5429 5430 5430 5430 5429 5429 5428 5428 5426 5425 5423 5420 5418 5416 5414 5412 5409 5407 5405 5401 5398 5394 5391 5387 5383
5406 5406 5407 5408 5409 5410 5411 5413 5414 5416 5417 5418 5418 5419 5419 5419 5419 5419 5418 5418 5417 5416 5414 5412 5410 5408 5406 5404 5401 5398 5397 5394 5391 5387 5384 5381 5377 5373
5397 5398 5398 5399 5400 5401 5402 5403 5405 5406 5407 5408 5408 5409 5409 5409 5409 5408 5408 5407 5406 5405 5403 5401 5399 5397 5395 5394 5391 5389 5386 5384 5381 5378 5374 5370 5367 5363
5389 5390 5390 5391 5392 5392 5393 5394 5395 5396 5397 5398 5399 5399 5399 5399 5399 5398 5398 5397 5396 5395 5393 5391 5389 5387 5385 5383 5381 5379 5376 5374 5371 5368 5365 5362 5358 5355
5381 5382 5382 5383 5384 5384 5385 5386 5386 5387 5388 5389 5389 5390 5390 5389 5389 5389 5388 5387 5386 5385 5383 5381 5378 5376 5375 5373 5371 5369 5367 5364 5361 5358 5355 5353 5350 5347
5374 5374 5375 5375 5376 5377 5377 5378 5379 5379 5379 5380 5380 5380 5380 5380 5379 5379 5378 5377 5376 5375 5373 5371 5369 5367 5365 5363 5361 5359 5357 5355 5352 5350 5348 5345 5343 5340